Change the Weather History Date:

Monday, July 8, 2013

  Actual Average Record
Temperature  
Mean Temperature 84 °F -  
Max Temperature 90 °F 90 °F 96 °F (1963)
Min Temperature 79 °F 75 °F 69 °F (1950)
Cooling Degree Days 19    
Growing Degree Days 34 (Base 50)    
Moisture  
Dew Point 71 °F    
Average Humidity 67    
Maximum Humidity 82    
Minimum Humidity 52    
Precipitation  
Precipitation 0.00 in - - ()
Sea Level Pressure  
Sea Level Pressure 30.11 in    
Wind  
Wind Speed 9 mph (East)    
Max Wind Speed 15 mph    
Max Gust Speed 17 mph    
Visibility 10 miles    
Events      
Averages and records for this station are not official NWS values.
T = Trace of Precipitation, MM = Missing Value Source: NWS Daily Summary

Daily Weather History Graph

Daily Weather History Graph

Search for Another Location

Airport or City:

Trip Planner

Search our weather history database for the weather conditions in past years. The results will help you decide how hot, cold, wet, or windy it might be!

Date:

Astronomy

Jul. 08, 2013 Rise Set
Actual Time 6:35 AM EDT 8:16 PM EDT
Civil Twilight 6:10 AM EDT 8:42 PM EDT
Nautical Twilight 5:39 AM EDT 9:13 PM EDT
Astronomical Twilight 5:06 AM EDT 9:45 PM EDT
Moon 6:55 AM EDT (7/8) 8:28 PM EDT (7/8)
Length of Visible Light 14h 32m
Length of Day
13h 40m
New Moon, 0% of the Moon is Illuminated
Jul 8
New Moon
Jul 15
First Quarter
Jul 22
Full
Jul 29
Last Quarter
Aug 6
New

Hourly Weather History & Observations

Time (EDT) Temp. Heat Index Dew Point Humidity Pressure Visibility Wind Dir Wind Speed Gust Speed Precip Events Conditions
12:53 AM 81.0 °F 85.8 °F 73.0 °F 77% 30.11 in 10.0 mi East 6.9 mph - N/A   Partly Cloudy
1:53 AM 80.1 °F 83.8 °F 72.0 °F 76% 30.10 in 10.0 mi East 5.8 mph - N/A   Partly Cloudy
2:53 AM 79.0 °F - 72.0 °F 79% 30.10 in 10.0 mi East 5.8 mph - N/A   Clear
3:53 AM 80.1 °F 84.2 °F 73.0 °F 79% 30.09 in 10.0 mi East 6.9 mph - N/A   Partly Cloudy
4:53 AM 79.0 °F - 72.0 °F 79% 30.09 in 10.0 mi East 6.9 mph - N/A   Clear
5:53 AM 79.0 °F - 72.0 °F 79% 30.09 in 10.0 mi ESE 4.6 mph - N/A   Clear
6:53 AM 79.0 °F - 73.0 °F 82% 30.09 in 10.0 mi East 8.1 mph - N/A   Clear
7:53 AM 82.0 °F 86.7 °F 72.0 °F 71% 30.10 in 10.0 mi East 9.2 mph - N/A   Clear
8:53 AM 82.9 °F 87.5 °F 71.1 °F 67% 30.11 in 10.0 mi East 15.0 mph - N/A   Partly Cloudy
9:53 AM 86.0 °F 91.5 °F 71.1 °F 61% 30.13 in 10.0 mi ESE 12.7 mph - N/A   Scattered Clouds
10:53 AM 86.0 °F 91.5 °F 71.1 °F 61% 30.14 in 10.0 mi ESE 12.7 mph - N/A   Mostly Cloudy
11:53 AM 87.1 °F 92.0 °F 70.0 °F 57% 30.16 in 10.0 mi ESE 13.8 mph - N/A   Scattered Clouds
12:53 PM 89.1 °F 93.7 °F 69.1 °F 52% 30.15 in 10.0 mi East 12.7 mph - N/A   Partly Cloudy
1:53 PM 89.1 °F 94.1 °F 70.0 °F 53% 30.14 in 10.0 mi East 9.2 mph 17.3 mph N/A   Partly Cloudy
2:53 PM 89.1 °F 96.0 °F 72.0 °F 57% 30.13 in 10.0 mi East 12.7 mph 17.3 mph N/A   Partly Cloudy
3:53 PM 88.0 °F 92.9 °F 70.0 °F 55% 30.12 in 10.0 mi East 12.7 mph - N/A   Scattered Clouds
4:53 PM 88.0 °F 92.9 °F 70.0 °F 55% 30.09 in 10.0 mi East 13.8 mph - N/A   Scattered Clouds
5:53 PM 86.0 °F 90.1 °F 69.1 °F 57% 30.09 in 10.0 mi East 13.8 mph - N/A   Clear
6:53 PM 86.0 °F 90.1 °F 69.1 °F 57% 30.09 in 10.0 mi East 8.1 mph - N/A   Partly Cloudy
7:53 PM 82.9 °F 87.0 °F 70.0 °F 65% 30.10 in 10.0 mi ENE 9.2 mph - N/A   Clear
8:53 PM 82.0 °F 85.9 °F 70.0 °F 67% 30.10 in 10.0 mi ENE 9.2 mph - N/A   Clear
9:53 PM 82.0 °F 86.7 °F 72.0 °F 71% 30.13 in 10.0 mi ENE 9.2 mph - N/A   Clear
10:53 PM 81.0 °F 85.2 °F 72.0 °F 74% 30.15 in 10.0 mi ENE 9.2 mph - N/A   Clear
11:53 PM 80.1 °F 83.8 °F 72.0 °F 76% 30.15 in 10.0 mi East 5.8 mph - N/A   Clear